| time (UTC) | temp F | wind direction | speed MPH | gust MPH | rain 1hr in | rain 24hr in | rain mn in | humidity % | barometer mb |
| 20260509011202 | 65 | 6 | 3.0 | 13.0 | 0.00 | 0.00 | 0.00 | 22 | 1001.1 |
| 20260509010702 | 66 | 332 | 2.0 | 13.0 | 0.00 | 0.00 | 0.00 | 21 | 1001.1 |
| 20260509010202 | 66 | 334 | 4.0 | 12.0 | 0.00 | 0.00 | 0.00 | 20 | 1001.0 |
| 20260509005703 | 66 | 348 | 3.0 | 12.0 | 0.00 | 0.00 | 0.00 | 20 | 1001.0 |
| 20260509005203 | 66 | 48 | 4.0 | 12.0 | 0.00 | 0.00 | 0.00 | 20 | 1000.9 |
| 20260509004203 | 67 | 5 | 2.0 | 10.0 | 0.00 | 0.00 | 0.00 | 20 | 1001.0 |
| 20260509003702 | 67 | 1 | 2.0 | 12.0 | 0.00 | 0.00 | 0.00 | 19 | 1000.9 |
| 20260509001703 | 67 | 357 | 6.0 | 20.0 | 0.00 | 0.00 | 0.00 | 19 | 1000.8 |
| 20260509000204 | 68 | 8 | 2.0 | 16.0 | 0.00 | 0.00 | 0.00 | 21 | 1000.8 |
| 20260508235202 | 68 | 0 | 4.0 | 17.0 | 0.00 | 0.00 | 0.00 | 20 | 1000.8 |
| 20260508234703 | 68 | 7 | 2.0 | 13.0 | 0.00 | 0.00 | 0.00 | 20 | 1000.8 |
| 20260508234202 | 68 | 5 | 2.0 | 13.0 | 0.00 | 0.00 | 0.00 | 21 | 1000.8 |
| 20260508233703 | 68 | 7 | 2.0 | 13.0 | 0.00 | 0.00 | 0.00 | 19 | 1000.9 |
| 20260508233203 | 68 | 349 | 4.0 | 13.0 | 0.00 | 0.00 | 0.00 | 22 | 1000.9 |
| 20260508232704 | 68 | 357 | 3.0 | 12.0 | 0.00 | 0.00 | 0.00 | 21 | 1000.9 |
| 20260508232203 | 68 | 31 | 1.0 | 15.0 | 0.00 | 0.00 | 0.00 | 23 | 1000.8 |
| 20260508231703 | 68 | 287 | 1.0 | 15.0 | 0.00 | 0.00 | 0.00 | 22 | 1000.9 |
| 20260508231203 | 68 | 356 | 2.0 | 15.0 | 0.00 | 0.00 | 0.00 | 21 | 1001.0 |
| 20260508230704 | 69 | 19 | 1.0 | 12.0 | 0.00 | 0.00 | 0.00 | 21 | 1001.0 |
| 20260508225703 | 69 | 339 | 3.0 | 9.0 | 0.00 | 0.00 | 0.00 | 21 | 1001.0 |
| 20260508225203 | 69 | 11 | 2.0 | 14.0 | 0.00 | 0.00 | 0.00 | 20 | 1001.0 |
| 20260508224704 | 69 | 314 | 2.0 | 14.0 | 0.00 | 0.00 | 0.00 | 21 | 1001.0 |
| 20260508224203 | 69 | 354 | 3.0 | 14.0 | 0.00 | 0.00 | 0.00 | 19 | 1000.9 |
| 20260508223202 | 70 | 10 | 1.0 | 10.0 | 0.00 | 0.00 | 0.00 | 21 | 1000.9 |
| 20260508222203 | 70 | 357 | 3.0 | 12.0 | 0.00 | 0.00 | 0.00 | 20 | 1001.0 |
| 20260508221703 | 70 | 27 | 0.0 | 7.0 | 0.00 | 0.00 | 0.00 | 21 | 1001.0 |
| 20260508221203 | 70 | 312 | 1.0 | 10.0 | 0.00 | 0.00 | 0.00 | 20 | 1001.1 |
| 20260508220703 | 70 | 357 | 0.0 | 12.0 | 0.00 | 0.00 | 0.00 | 21 | 1001.1 |
| 20260508220202 | 70 | 359 | 5.0 | 12.0 | 0.00 | 0.00 | 0.00 | 19 | 1001.0 |
| 20260508215703 | 70 | 338 | 1.0 | 8.0 | 0.00 | 0.00 | 0.00 | 22 | 1001.2 |
| 20260508214703 | 70 | 18 | 1.0 | 12.0 | 0.00 | 0.00 | 0.00 | 20 | 1001.3 |
| 20260508214204 | 70 | 341 | 3.0 | 12.0 | 0.00 | 0.00 | 0.00 | 20 | 1001.3 |
| 20260508213702 | 70 | 25 | 5.0 | 12.0 | 0.00 | 0.00 | 0.00 | 19 | 1001.4 |
| 20260508213203 | 70 | 0 | 1.0 | 12.0 | 0.00 | 0.00 | 0.00 | 19 | 1001.4 |
| 20260508212702 | 70 | 323 | 0.0 | 8.0 | 0.00 | 0.00 | 0.00 | 22 | 1001.4 |
| 20260508212202 | 70 | 57 | 1.0 | 7.0 | 0.00 | 0.00 | 0.00 | 20 | 1001.4 |
| 20260508211702 | 71 | 0 | 1.0 | 8.0 | 0.00 | 0.00 | 0.00 | 20 | 1001.4 |
| 20260508210703 | 69 | 7 | 1.0 | 7.0 | 0.00 | 0.00 | 0.00 | 19 | 1001.6 |
| 20260508210203 | 70 | 0 | 1.0 | 10.0 | 0.00 | 0.00 | 0.00 | 19 | 1001.7 |
| 20260508205703 | 71 | 15 | 3.0 | 10.0 | 0.00 | 0.00 | 0.00 | 18 | 1001.8 |
| 20260508205202 | 71 | 39 | 1.0 | 13.0 | 0.00 | 0.00 | 0.00 | 19 | 1001.9 |
| 20260508204202 | 72 | 355 | 3.0 | 13.0 | 0.00 | 0.00 | 0.00 | 19 | 1002.0 |
| 20260508203703 | 71 | 14 | 1.0 | 13.0 | 0.00 | 0.00 | 0.00 | 19 | 1002.1 |
| 20260508203203 | 70 | 356 | 2.0 | 13.0 | 0.00 | 0.00 | 0.00 | 20 | 1002.2 |
| 20260508202703 | 70 | 340 | 5.0 | 12.0 | 0.00 | 0.00 | 0.00 | 18 | 1002.3 |
| 20260508202203 | 69 | 327 | 0.0 | 9.0 | 0.00 | 0.00 | 0.00 | 24 | 1002.3 |
| 20260508201703 | 68 | 270 | 1.0 | 8.0 | 0.00 | 0.00 | 0.00 | 22 | 1002.4 |
| 20260508201203 | 69 | 19 | 3.0 | 10.0 | 0.00 | 0.00 | 0.00 | 18 | 1002.5 |
| 20260508200703 | 69 | 342 | 2.0 | 10.0 | 0.00 | 0.00 | 0.00 | 20 | 1002.8 |
| 20260508200203 | 69 | 354 | 2.0 | 9.0 | 0.00 | 0.00 | 0.00 | 20 | 1002.7 |
| 20260508195703 | 69 | 0 | 2.0 | 9.0 | 0.00 | 0.00 | 0.00 | 19 | 1002.7 |
| 20260508195203 | 70 | 355 | 2.0 | 12.0 | 0.00 | 0.00 | 0.00 | 18 | 1002.9 |
| 20260508194703 | 70 | 353 | 2.0 | 17.0 | 0.00 | 0.00 | 0.00 | 19 | 1002.9 |
| 20260508194203 | 69 | 309 | 2.0 | 17.0 | 0.00 | 0.00 | 0.00 | 19 | 1003.0 |
| 20260508193703 | 69 | 10 | 5.0 | 17.0 | 0.00 | 0.00 | 0.00 | 18 | 1003.1 |
| 20260508193204 | 70 | 345 | 3.0 | 16.0 | 0.00 | 0.00 | 0.00 | 18 | 1003.2 |
| 20260508192702 | 70 | 22 | 4.0 | 16.0 | 0.00 | 0.00 | 0.00 | 18 | 1003.2 |
| 20260508192202 | 70 | 10 | 3.0 | 12.0 | 0.00 | 0.00 | 0.00 | 17 | 1003.2 |
| 20260508191203 | 69 | 36 | 1.0 | 9.0 | 0.00 | 0.00 | 0.00 | 19 | 1003.4 |
| 20260508190703 | 69 | 301 | 3.0 | 14.0 | 0.00 | 0.00 | 0.00 | 18 | 1003.6 |
| 20260508185703 | 68 | 4 | 1.0 | 14.0 | 0.00 | 0.00 | 0.00 | 19 | 1003.6 |
| 20260508184703 | 68 | 46 | 1.0 | 17.0 | 0.00 | 0.00 | 0.00 | 19 | 1003.6 |
| 20260508183703 | 68 | 9 | 1.0 | 10.0 | 0.00 | 0.00 | 0.00 | 19 | 1003.7 |
| 20260508182703 | 69 | 352 | 3.0 | 12.0 | 0.00 | 0.00 | 0.00 | 20 | 1003.9 |
| 20260508182203 | 69 | 328 | 1.0 | 15.0 | 0.00 | 0.00 | 0.00 | 21 | 1003.9 |
| 20260508181703 | 68 | 338 | 2.0 | 15.0 | 0.00 | 0.00 | 0.00 | 18 | 1004.0 |
| 20260508181203 | 68 | 7 | 4.0 | 14.0 | 0.00 | 0.00 | 0.00 | 18 | 1004.0 |
| 20260508180703 | 68 | 12 | 2.0 | 14.0 | 0.00 | 0.00 | 0.00 | 20 | 1004.2 |
| 20260508180203 | 67 | 331 | 4.0 | 14.0 | 0.00 | 0.00 | 0.00 | 20 | 1004.3 |
| 20260508175703 | 67 | 17 | 5.0 | 14.0 | 0.00 | 0.00 | 0.00 | 18 | 1004.4 |
| 20260508175203 | 67 | 9 | 2.0 | 14.0 | 0.00 | 0.00 | 0.00 | 21 | 1004.4 |
| 20260508173703 | 67 | 336 | 1.0 | 10.0 | 0.00 | 0.00 | 0.00 | 20 | 1004.6 |
| 20260508173203 | 66 | 23 | 3.0 | 12.0 | 0.00 | 0.00 | 0.00 | 19 | 1004.8 |
| 20260508171203 | 65 | 353 | 2.0 | 15.0 | 0.00 | 0.00 | 0.00 | 22 | 1005.1 |
| 20260508170204 | 64 | 12 | 2.0 | 15.0 | 0.00 | 0.00 | 0.00 | 24 | 1005.3 |
| 20260508165704 | 64 | 329 | 3.0 | 9.0 | 0.00 | 0.00 | 0.00 | 22 | 1005.3 |
| 20260508164703 | 64 | 357 | 2.0 | 8.0 | 0.00 | 0.00 | 0.00 | 25 | 1005.4 |
| 20260508164202 | 63 | 12 | 0.0 | 9.0 | 0.00 | 0.00 | 0.00 | 27 | 1005.4 |
| 20260508163203 | 63 | 314 | 3.0 | 9.0 | 0.00 | 0.00 | 0.00 | 27 | 1005.6 |
| 20260508162703 | 62 | 300 | 1.0 | 8.0 | 0.00 | 0.00 | 0.00 | 29 | 1005.7 |
| 20260508162204 | 62 | 355 | 1.0 | 10.0 | 0.00 | 0.00 | 0.00 | 28 | 1005.7 |
| 20260508161703 | 61 | 341 | 0.0 | 12.0 | 0.00 | 0.00 | 0.00 | 28 | 1005.8 |
| 20260508160703 | 60 | 275 | 1.0 | 8.0 | 0.00 | 0.00 | 0.00 | 31 | 1005.9 |
| 20260508160203 | 60 | 315 | 2.0 | 12.0 | 0.00 | 0.00 | 0.00 | 29 | 1006.1 |
| 20260508155703 | 60 | 9 | 1.0 | 12.0 | 0.00 | 0.00 | 0.00 | 30 | 1006.2 |
| 20260508155203 | 60 | 322 | 0.0 | 9.0 | 0.00 | 0.00 | 0.00 | 31 | 1006.2 |
| 20260508154703 | 60 | 315 | 2.0 | 9.0 | 0.00 | 0.00 | 0.00 | 31 | 1006.2 |
| 20260508154204 | 60 | 306 | 2.0 | 10.0 | 0.00 | 0.00 | 0.00 | 33 | 1006.2 |
| 20260508153703 | 59 | 338 | 2.0 | 10.0 | 0.00 | 0.00 | 0.00 | 32 | 1006.2 |
| 20260508153203 | 59 | 305 | 1.0 | 9.0 | 0.00 | 0.00 | 0.00 | 32 | 1006.2 |
| 20260508152703 | 58 | 303 | 2.0 | 9.0 | 0.00 | 0.00 | 0.00 | 35 | 1006.3 |
| 20260508152204 | 58 | 350 | 2.0 | 8.0 | 0.00 | 0.00 | 0.00 | 33 | 1006.3 |
| 20260508150703 | 57 | 279 | 0.0 | 5.0 | 0.00 | 0.00 | 0.00 | 35 | 1006.5 |
| 20260508150203 | 57 | 284 | 0.0 | 5.0 | 0.00 | 0.00 | 0.00 | 33 | 1006.5 |
| 20260508145703 | 57 | 273 | 1.0 | 7.0 | 0.00 | 0.00 | 0.00 | 34 | 1006.5 |
| 20260508145204 | 56 | 358 | 1.0 | 7.0 | 0.00 | 0.00 | 0.00 | 34 | 1006.6 |
| 20260508144203 | 55 | 348 | 1.0 | 7.0 | 0.00 | 0.00 | 0.00 | 37 | 1006.6 |
| 20260508143703 | 55 | 303 | 2.0 | 7.0 | 0.00 | 0.00 | 0.00 | 35 | 1006.6 |
| 20260508143203 | 54 | 300 | 3.0 | 7.0 | 0.00 | 0.00 | 0.00 | 35 | 1006.7 |
| 20260508142704 | 54 | 232 | 1.0 | 6.0 | 0.00 | 0.00 | 0.00 | 38 | 1006.7 |
| 20260508142203 | 53 | 282 | 0.0 | 6.0 | 0.00 | 0.00 | 0.00 | 36 | 1006.7 |
| 20260508141704 | 53 | 267 | 1.0 | 3.0 | 0.00 | 0.00 | 0.00 | 37 | 1006.9 |
| 20260508141203 | 53 | 212 | 0.0 | 6.0 | 0.00 | 0.00 | 0.00 | 38 | 1006.8 |
| 20260508140203 | 52 | 183 | 0.0 | 7.0 | 0.00 | 0.00 | 0.00 | 38 | 1006.8 |
| 20260508135703 | 52 | 213 | 2.0 | 8.0 | 0.00 | 0.00 | 0.00 | 37 | 1006.9 |
| 20260508134703 | 51 | 305 | 1.0 | 8.0 | 0.00 | 0.00 | 0.00 | 37 | 1007.0 |
| 20260508134203 | 51 | 293 | 2.0 | 9.0 | 0.00 | 0.00 | 0.00 | 37 | 1007.0 |
| 20260508133703 | 51 | 166 | 0.0 | 9.0 | 0.00 | 0.00 | 0.00 | 38 | 1006.9 |
| 20260508132703 | 51 | 269 | 0.0 | 7.0 | 0.00 | 0.00 | 0.00 | 38 | 1007.0 |
| 20260508132204 | 50 | 197 | 2.0 | 7.0 | 0.00 | 0.00 | 0.00 | 38 | 1007.0 |
| 20260508131703 | 50 | 312 | 1.0 | 8.0 | 0.00 | 0.00 | 0.00 | 37 | 1007.0 |
| 20260508130703 | 49 | 260 | 1.0 | 9.0 | 0.00 | 0.00 | 0.00 | 40 | 1007.0 |
| 20260508130204 | 48 | 243 | 2.0 | 9.0 | 0.00 | 0.00 | 0.00 | 39 | 1007.0 |
| 20260508125703 | 47 | 244 | 1.0 | 8.0 | 0.00 | 0.00 | 0.00 | 40 | 1007.0 |
| 20260508125204 | 47 | 254 | 2.0 | 6.0 | 0.00 | 0.00 | 0.00 | 40 | 1007.0 |
| 20260508124704 | 46 | 313 | 1.0 | 7.0 | 0.00 | 0.00 | 0.00 | 42 | 1007.1 |
| 20260508124204 | 46 | 197 | 1.0 | 8.0 | 0.00 | 0.00 | 0.00 | 41 | 1007.1 |
| 20260508123703 | 46 | 185 | 1.0 | 8.0 | 0.00 | 0.00 | 0.00 | 41 | 1007.1 |
| 20260508123203 | 45 | 313 | 1.0 | 8.0 | 0.00 | 0.00 | 0.00 | 41 | 1007.0 |
| 20260508122703 | 45 | 279 | 2.0 | 8.0 | 0.00 | 0.00 | 0.00 | 41 | 1007.0 |
| 20260508122203 | 45 | 317 | 0.0 | 6.0 | 0.00 | 0.00 | 0.00 | 42 | 1007.0 |
| 20260508121704 | 45 | 256 | 1.0 | 9.0 | 0.00 | 0.00 | 0.00 | 42 | 1007.0 |
| 20260508121204 | 45 | 288 | 2.0 | 9.0 | 0.00 | 0.00 | 0.00 | 42 | 1006.9 |
| 20260508120703 | 44 | 186 | 2.0 | 9.0 | 0.00 | 0.00 | 0.00 | 42 | 1006.9 |
| 20260508120204 | 44 | 245 | 2.0 | 8.0 | 0.00 | 0.00 | 0.00 | 42 | 1006.8 |
| 20260508115703 | 44 | 274 | 1.0 | 8.0 | 0.00 | 0.00 | 0.00 | 42 | 1006.9 |
| 20260508115204 | 44 | 268 | 1.0 | 7.0 | 0.00 | 0.00 | 0.00 | 43 | 1006.8 |
| 20260508114704 | 44 | 284 | 1.0 | 6.0 | 0.00 | 0.00 | 0.00 | 42 | 1006.8 |
| 20260508114204 | 44 | 282 | 0.0 | 6.0 | 0.00 | 0.00 | 0.00 | 42 | 1006.8 |
| 20260508113703 | 44 | 236 | 2.0 | 7.0 | 0.00 | 0.00 | 0.00 | 42 | 1006.8 |
| 20260508113204 | 44 | 230 | 1.0 | 7.0 | 0.00 | 0.00 | 0.00 | 42 | 1006.8 |
| 20260508112703 | 44 | 239 | 1.0 | 7.0 | 0.00 | 0.00 | 0.00 | 42 | 1006.8 |
| 20260508112204 | 43 | 260 | 1.0 | 8.0 | 0.00 | 0.00 | 0.00 | 42 | 1006.8 |
| 20260508111703 | 43 | 314 | 2.0 | 8.0 | 0.00 | 0.00 | 0.00 | 42 | 1006.8 |
| 20260508111204 | 43 | 229 | 1.0 | 3.0 | 0.00 | 0.00 | 0.00 | 43 | 1006.8 |
| 20260508110703 | 43 | 242 | 1.0 | 3.0 | 0.00 | 0.00 | 0.00 | 42 | 1006.8 |
| 20260508110203 | 43 | 215 | 0.0 | 3.0 | 0.00 | 0.00 | 0.00 | 43 | 1006.8 |
| 20260508105204 | 43 | 289 | 0.0 | 3.0 | 0.00 | 0.00 | 0.00 | 42 | 1006.8 |
| 20260508104204 | 43 | 289 | 0.0 | 5.0 | 0.00 | 0.00 | 0.00 | 42 | 1006.8 |
| 20260508103203 | 44 | 310 | 0.0 | 3.0 | 0.00 | 0.00 | 0.00 | 42 | 1006.8 |
| 20260508102704 | 44 | 310 | 1.0 | 6.0 | 0.00 | 0.00 | 0.00 | 42 | 1006.9 |
| 20260508101703 | 44 | 279 | 1.0 | 6.0 | 0.00 | 0.00 | 0.00 | 41 | 1006.9 |
| 20260508100204 | 44 | 285 | 1.0 | 5.0 | 0.00 | 0.00 | 0.00 | 40 | 1007.0 |
| 20260508095704 | 44 | 245 | 0.0 | 5.0 | 0.00 | 0.00 | 0.00 | 40 | 1007.0 |
| 20260508095204 | 44 | 226 | 1.0 | 7.0 | 0.00 | 0.00 | 0.00 | 40 | 1007.0 |
| 20260508094703 | 44 | 300 | 0.0 | 7.0 | 0.00 | 0.00 | 0.00 | 40 | 1007.0 |
| 20260508094204 | 44 | 304 | 1.0 | 7.0 | 0.00 | 0.00 | 0.00 | 39 | 1006.9 |
| 20260508093703 | 44 | 274 | 0.0 | 5.0 | 0.00 | 0.00 | 0.00 | 39 | 1006.9 |
| 20260508093204 | 44 | 257 | 1.0 | 6.0 | 0.00 | 0.00 | 0.00 | 39 | 1007.0 |
| 20260508092704 | 44 | 197 | 1.0 | 6.0 | 0.00 | 0.00 | 0.00 | 39 | 1007.0 |
| 20260508091703 | 44 | 341 | 1.0 | 7.0 | 0.00 | 0.00 | 0.00 | 39 | 1007.0 |
| 20260508091203 | 44 | 267 | 0.0 | 6.0 | 0.00 | 0.00 | 0.00 | 40 | 1007.1 |
| 20260508090204 | 44 | 216 | 1.0 | 5.0 | 0.00 | 0.00 | 0.00 | 39 | 1007.1 |
| 20260508085704 | 44 | 270 | 1.0 | 5.0 | 0.00 | 0.00 | 0.00 | 40 | 1007.1 |
| 20260508084705 | 45 | 268 | 1.0 | 5.0 | 0.00 | 0.00 | 0.00 | 40 | 1007.1 |
| 20260508084204 | 45 | 177 | 0.0 | 5.0 | 0.00 | 0.00 | 0.00 | 39 | 1007.1 |
| 20260508083704 | 45 | 267 | 0.0 | 8.0 | 0.00 | 0.00 | 0.00 | 39 | 1007.1 |
| 20260508083203 | 45 | 235 | 2.0 | 8.0 | 0.00 | 0.00 | 0.00 | 39 | 1007.1 |
| 20260508082704 | 45 | 222 | 1.0 | 8.0 | 0.00 | 0.00 | 0.00 | 39 | 1007.2 |
| 20260508081703 | 45 | 273 | 1.0 | 6.0 | 0.00 | 0.00 | 0.00 | 39 | 1007.3 |
| 20260508081204 | 45 | 217 | 1.0 | 6.0 | 0.00 | 0.00 | 0.00 | 40 | 1007.2 |
| 20260508080704 | 45 | 299 | 0.0 | 5.0 | 0.00 | 0.00 | 0.00 | 40 | 1007.3 |
| 20260508080202 | 45 | 217 | 1.0 | 5.0 | 0.00 | 0.00 | 0.00 | 40 | 1007.2 |
| 20260508075702 | 45 | 201 | 1.0 | 5.0 | 0.00 | 0.00 | 0.00 | 41 | 1007.3 |
| 20260508075201 | 45 | 259 | 1.0 | 6.0 | 0.00 | 0.00 | 0.00 | 40 | 1007.4 |
| 20260508074201 | 45 | 218 | 1.0 | 7.0 | 0.00 | 0.00 | 0.00 | 40 | 1007.4 |
| 20260508073702 | 46 | 224 | 1.0 | 5.0 | 0.00 | 0.00 | 0.00 | 40 | 1007.5 |
| 20260508073202 | 46 | 195 | 1.0 | 3.0 | 0.00 | 0.00 | 0.00 | 40 | 1007.5 |
| 20260508072702 | 46 | 208 | 0.0 | 3.0 | 0.00 | 0.00 | 0.00 | 40 | 1007.5 |
| 20260508072202 | 46 | 191 | 1.0 | 3.0 | 0.00 | 0.00 | 0.00 | 40 | 1007.5 |
| 20260508071702 | 46 | 229 | 0.0 | 5.0 | 0.00 | 0.00 | 0.00 | 40 | 1007.5 |
| 20260508071202 | 46 | 202 | 0.0 | 5.0 | 0.00 | 0.00 | 0.00 | 40 | 1007.6 |
| 20260508070701 | 46 | 187 | 0.0 | 6.0 | 0.00 | 0.00 | 0.00 | 40 | 1007.6 |
| 20260508070203 | 46 | 188 | 1.0 | 6.0 | 0.00 | 0.00 | 0.00 | 40 | 1007.7 |
| 20260508065702 | 46 | 222 | 0.0 | 3.0 | 0.00 | 0.00 | 0.00 | 41 | 1007.7 |
| 20260508065202 | 46 | 230 | 1.0 | 3.0 | 0.00 | 0.00 | 0.00 | 41 | 1007.7 |
| 20260508064702 | 46 | 225 | 0.0 | 3.0 | 0.00 | 0.00 | 0.00 | 40 | 1007.8 |
| 20260508064202 | 46 | 229 | 0.0 | 2.0 | 0.00 | 0.00 | 0.00 | 40 | 1007.8 |
| 20260508063702 | 46 | 229 | 0.0 | 2.0 | 0.00 | 0.00 | 0.00 | 40 | 1007.8 |
| 20260508063202 | 47 | 243 | 0.0 | 1.0 | 0.00 | 0.00 | 0.00 | 39 | 1007.8 |
| 20260508062702 | 47 | 244 | 0.0 | 3.0 | 0.00 | 0.00 | 0.00 | 39 | 1007.9 |
| 20260508062202 | 47 | 235 | 0.0 | 3.0 | 0.00 | 0.00 | 0.00 | 38 | 1007.9 |
| 20260508061702 | 47 | 270 | 0.0 | 3.0 | 0.00 | 0.00 | 0.00 | 38 | 1008.0 |
| 20260508061202 | 47 | 270 | 0.0 | 3.0 | 0.00 | 0.00 | 0.00 | 38 | 1008.0 |
| 20260508060702 | 47 | 221 | 0.0 | 3.0 | 0.00 | 0.00 | 0.00 | 38 | 1008.1 |
| 20260508060202 | 47 | 225 | 0.0 | 3.0 | 0.00 | 0.00 | 0.00 | 38 | 1008.1 |
| 20260508055202 | 47 | 184 | 1.0 | 5.0 | 0.00 | 0.00 | 0.00 | 39 | 1008.1 |
| 20260508054702 | 47 | 316 | 1.0 | 5.0 | 0.00 | 0.00 | 0.00 | 39 | 1008.2 |
| 20260508054202 | 47 | 234 | 1.0 | 5.0 | 0.00 | 0.00 | 0.00 | 38 | 1008.1 |
| 20260508053702 | 47 | 266 | 0.0 | 5.0 | 0.00 | 0.00 | 0.00 | 38 | 1008.1 |
| 20260508053202 | 48 | 277 | 0.0 | 3.0 | 0.00 | 0.00 | 0.00 | 39 | 1008.2 |
| 20260508052702 | 48 | 277 | 0.0 | 3.0 | 0.00 | 0.00 | 0.00 | 38 | 1008.2 |
| 20260508052202 | 48 | 281 | 0.0 | 3.0 | 0.00 | 0.00 | 0.00 | 38 | 1008.2 |
| 20260508051702 | 48 | 282 | 1.0 | 3.0 | 0.00 | 0.00 | 0.00 | 38 | 1008.3 |
| 20260508051202 | 48 | 246 | 1.0 | 3.0 | 0.00 | 0.00 | 0.00 | 38 | 1008.3 |
| 20260508050703 | 48 | 233 | 0.0 | 3.0 | 0.00 | 0.00 | 0.00 | 37 | 1008.3 |
| 20260508050202 | 48 | 224 | 1.0 | 3.0 | 0.00 | 0.00 | 0.00 | 38 | 1008.4 |
| 20260508045703 | 48 | 287 | 0.0 | 3.0 | 0.00 | 0.00 | 0.00 | 38 | 1008.4 |
| 20260508045203 | 48 | 261 | 0.0 | 3.0 | 0.00 | 0.00 | 0.00 | 39 | 1008.4 |
| 20260508044202 | 48 | 272 | 0.0 | 3.0 | 0.00 | 0.00 | 0.00 | 38 | 1008.5 |
| 20260508043702 | 48 | 272 | 0.0 | 3.0 | 0.00 | 0.00 | 0.00 | 38 | 1008.6 |
| 20260508042702 | 49 | 323 | 0.0 | 0.0 | 0.00 | 0.00 | 0.00 | 37 | 1008.6 |
| 20260508042203 | 49 | 287 | 0.0 | 0.0 | 0.00 | 0.00 | 0.00 | 38 | 1008.7 |
| 20260508041202 | 49 | 287 | 0.0 | 0.0 | 0.00 | 0.00 | 0.00 | 37 | 1008.6 |
| 20260508040702 | 49 | 290 | 0.0 | 0.0 | 0.00 | 0.00 | 0.00 | 37 | 1008.6 |
| 20260508035702 | 49 | 290 | 0.0 | 1.0 | 0.00 | 0.00 | 0.00 | 35 | 1008.6 |
| 20260508035202 | 49 | 291 | 0.0 | 0.0 | 0.00 | 0.00 | 0.00 | 35 | 1008.7 |
| 20260508034702 | 49 | 291 | 0.0 | 0.0 | 0.00 | 0.00 | 0.00 | 36 | 1008.7 |
| 20260508034202 | 49 | 291 | 0.0 | 0.0 | 0.00 | 0.00 | 0.00 | 34 | 1008.8 |
| 20260508033702 | 49 | 291 | 0.0 | 0.0 | 0.00 | 0.00 | 0.00 | 35 | 1008.8 |
| 20260508033202 | 49 | 291 | 0.0 | 3.0 | 0.00 | 0.00 | 0.00 | 36 | 1008.8 |
| 20260508032702 | 50 | 291 | 0.0 | 3.0 | 0.00 | 0.00 | 0.00 | 36 | 1008.9 |
| 20260508032204 | 50 | 306 | 0.0 | 3.0 | 0.00 | 0.00 | 0.00 | 35 | 1008.8 |
| 20260508031702 | 50 | 8 | 0.0 | 0.0 | 0.00 | 0.00 | 0.00 | 35 | 1008.8 |
| 20260508031202 | 50 | 8 | 0.0 | 0.0 | 0.00 | 0.00 | 0.00 | 35 | 1008.8 |
| 20260508030702 | 50 | 9 | 0.0 | 0.0 | 0.00 | 0.00 | 0.00 | 36 | 1008.8 |
| 20260508030202 | 50 | 9 | 0.0 | 0.0 | 0.00 | 0.00 | 0.00 | 36 | 1008.9 |
| 20260508025702 | 50 | 9 | 0.0 | 0.0 | 0.00 | 0.00 | 0.00 | 35 | 1008.9 |
| 20260508025202 | 50 | 9 | 0.0 | 0.0 | 0.00 | 0.00 | 0.00 | 35 | 1008.9 |
| 20260508024702 | 50 | 9 | 0.0 | 0.0 | 0.00 | 0.00 | 0.00 | 36 | 1008.9 |
| 20260508024202 | 50 | 9 | 0.0 | 0.0 | 0.00 | 0.00 | 0.00 | 35 | 1008.9 |
| 20260508023703 | 50 | 9 | 0.0 | 0.0 | 0.00 | 0.00 | 0.00 | 35 | 1008.8 |
| 20260508022702 | 51 | 9 | 0.0 | 0.0 | 0.00 | 0.00 | 0.00 | 34 | 1008.8 |
| 20260508022202 | 51 | 9 | 0.0 | 0.0 | 0.00 | 0.00 | 0.00 | 34 | 1008.8 |
| 20260508021702 | 51 | 9 | 0.0 | 0.0 | 0.00 | 0.00 | 0.00 | 33 | 1008.8 |
| 20260508021202 | 51 | 9 | 0.0 | 0.0 | 0.00 | 0.00 | 0.00 | 33 | 1008.8 |
| 20260508020703 | 52 | 9 | 0.0 | 0.0 | 0.00 | 0.00 | 0.00 | 33 | 1008.7 |
| 20260508015702 | 52 | 9 | 0.0 | 0.0 | 0.00 | 0.00 | 0.00 | 31 | 1008.5 |
| 20260508015202 | 53 | 9 | 0.0 | 0.0 | 0.00 | 0.00 | 0.00 | 29 | 1008.5 |
| 20260508014703 | 53 | 9 | 0.0 | 0.0 | 0.00 | 0.00 | 0.00 | 29 | 1008.5 |
| 20260508014202 | 53 | 9 | 0.0 | 0.0 | 0.00 | 0.00 | 0.00 | 29 | 1008.4 |
| 20260508013702 | 53 | 9 | 0.0 | 0.0 | 0.00 | 0.00 | 0.00 | 29 | 1008.4 |
| 20260508013204 | 53 | 9 | 0.0 | 0.0 | 0.00 | 0.00 | 0.00 | 29 | 1008.5 |
| 20260508012703 | 54 | 9 | 0.0 | 0.0 | 0.00 | 0.00 | 0.00 | 29 | 1008.4 |
| 20260508011702 | 54 | 9 | 0.0 | 0.0 | 0.00 | 0.00 | 0.00 | 28 | 1008.3 |